Simultaneous Nadir Overpasses (SNOs) Predictions

Prediction of SNOs between GOES-15 and TERRA Satellite Orbit:

Table of predicted SNOs for the next 14.0 days since TLE Epoch: 2/11/2012
Index Date Time (GOES-15) GOES-15 Lat,Lon TERRA Lat,Lon Distance(km) Time Diff (sec)
1 02/11/2012 07:27:49 0.00,-135.14 0.04,-134.88 28.62 80
2 02/13/2012 07:15:40 0.00,-135.19 0.69,-131.94 368.90 80
3 02/13/2012 19:39:36 -0.00,-135.18 0.42,-137.10 218.09 80
4 02/15/2012 19:24:47 0.00,-135.22 -0.22,-134.15 121.33 80
5 02/16/2012 07:48:52 -0.00,-135.24 -0.85,-139.35 466.62 80
6 02/17/2012 19:12:38 0.00,-135.25 -0.88,-131.21 460.31 80
7 02/18/2012 07:36:42 -0.01,-135.28 -0.25,-136.40 127.69 80
8 02/20/2012 07:21:53 -0.01,-135.31 0.41,-133.46 211.11 80
9 02/20/2012 19:45:49
